FLOCK 4Q 12

导读 | 星芒AI

FLOCK 4Q 12 是由 Planet Labs 运营的 Dove 系列小型地球观测卫星之一,属于 Flock 4Q 星座的一部分。该卫星主要用于高分辨率光学成像,支持全球范围内的日常地球监测。它搭载多光谱传感器,能够提供农业、环境监测、灾害响应等领域的数据支持。Flock 4Q 12 于 2016 年发射,运行在低地球轨道,与其他 Dove 卫星协同工作,提升图像采集频率和覆盖能力。

基本信息
目录编号:
58275
目录名称:
FLOCK 4Q 12
国际标识:
2023-174V
轨道中心:
EARTH
卫星名称:
FLOCK 4Q 12
卫星全名:
--
卫星状态:
在轨 (已飞行711 天)
发射日期:
2023-11-11 UTC
国别 :
美国 (US)
星等 :
--
轨道信息
数据来源 国际轨道数据
星历时间: 2025-10-22T12:44:47+0800
9小时前
查看轨道信息
半长轴: 6818.816km
偏心率: 0.0005653
轨道倾角: 97.406°
近地点辐角 289.652°
升交点赤经 16.504°
平近点角 70.412°
近地点: 436.826km
远地点: 444.536km
周期: 93.395分钟
每日圈数: 15.4184
详细信息
使用方式:
暂无
2D轨道图
3D轨道图
轨道高度分析图
轨道倾角分析图
轨道综合分析图
查看轨道综合分析图